Location: Bushrod
(6.3500°N, 10.7833°W)
Time: 04:36:58
(UTC+00:00)

Lacrosse 5 - Pass Details

Date: 17 September 2019
Orbit: 715 x 724 km, 57.0° (Epoch: 16 October)

Event Time Altitude Azimuth Distance (km) Brightness Sun altitude
Rises 20:43:34 0° 206° (SSW) 3,116 5.4 -31.0°
Reaches altitude 10° 20:45:58 10° 203° (SSW) 2,194 4.5 -31.6°
Enters shadow 20:46:26 13° 203° (SSW) 2,015 4.3 -31.7°
